Flag for Switzerland Weather past 2 weeks in Langenthal, Bern, Switzerland

Now
59 °F

Refreshingly cool.


Feels Like: 60 °F
Forecast: 46 / 62 °F
Wind: 3 mph from North

Location: Wynau

Current Time: Sep 5, 2015 at 1:23:33 AM

Latest Report: Sep 5, 2015 at 12:00 AM


Visibility: N/A

Pressure: 30.00 "Hg

Humidity: 54%

Dew point: 43 °F

Location of LangenthalLocation

Historic Weather in Langenthal — Graph

°F

Langenthal temperature yesterday

Maximum temperature yesterday: 68 °F (at 3:00 PM)
Minimum temperature yesterday: 49 °F (at 7:00 AM)
Average temperature yesterday: 60 °F

Past Weeks' High & Low Weather Summary

 TemperatureHumidityPressure
High92 °F (Aug 30, 4:00 PM)100% (Aug 25, 8:00 AM)30.26 "Hg (Aug 25, 8:00 AM)
Low47 °F (Aug 26, 7:00 AM)23% (Aug 30, 5:00 PM)29.71 "Hg (Aug 24, 7:00 AM)
Average66 °F73%30.00 "Hg
* Reported Aug 20 10:00 PM — Sep 4 10:00 PM, Langenthal, Weather by CustomWeather, © 2015

Note: Actual official high and low records may vary slightly from our data, if they occured in-between our weather recording intervals... More about our weather records

Advertising

Langenthal weather history for previous 24 hours

 ConditionsComfort  
Time TempWeatherWind HumidityBarometerVisibility
10:00 PM
Fri, Sep 4
61 °FRefreshingly cool.5 mph47%29.98 "HgN/A
9:00 PM63 °FMild.2 mph46%29.96 "HgN/A
7:00 PM65 °FMild.5 mph47%29.94 "HgN/A
6:00 PM67 °FMild.7 mph46%29.93 "HgN/A
5:00 PM67 °FMild.8 mph48%29.93 "HgN/A
4:00 PM68 °FMild.7 mph45%29.94 "HgN/A
3:00 PM68 °FMild.5 mph47%29.96 "HgN/A
2:00 PM68 °FMild.2 mph46%29.97 "HgN/A
1:00 PM64 °FMild.5 mph50%29.99 "HgN/A
12:00 PM67 °FMild.5 mph53%29.99 "HgN/A
11:00 AM62 °FCool.3 mph67%30.02 "HgN/A
10:00 AM59 °FCool.2 mph76%30.03 "HgN/A
9:00 AM55 °FCool.No wind84%30.04 "HgN/A
8:00 AM49 °FCool.1 mph100%30.06 "HgN/A
7:00 AM49 °FCool.1 mph98%30.04 "HgN/A
6:00 AM51 °FCool.No wind96%30.04 "HgN/A
5:00 AM53 °FCool.1 mph92%30.04 "HgN/A
4:00 AM54 °FCool.2 mph91%30.03 "HgN/A
3:00 AM56 °FCool.1 mph87%30.03 "HgN/A
2:00 AM58 °FCool.2 mph80%30.03 "HgN/A
1:00 AM58 °FCool.1 mph86%30.02 "HgN/A
Weather by CustomWeather, © 2015

See weather overviewHow to use our weather pages